Date String (YYYY-MM-DD hh:mm:ss) UTC,Instrument flags,absolute air pressure of the measurement (hPa),sample flow rate (lpm),inlet stack bypass flow (lpm),air temperature of the measurement (°C),ambient temperature measured by the external sensor (°C),aerosol sample conditioner tube jacket temperature (°C),OPC LED temperature (°C),internal box temperature (°C),relative humidity of the measurement (%),span deviation,mass concentration of particles derived from Lorenz-Mie calculation of OPC scattering (μg/m³),mass concentration of particles derived from Lorenz-Mie calculation of OPC scattering (μg/m³),mass concentration of particles derived from Lorenz-Mie calculation of OPC scattering (μg/m³)
DateTimeUTC,F1_M11,P_M11,Q1_M11,Q2_M11,T1_M11,T2_M11,T3_M11,T4_M11,T5_M11,U1_M11,ZSPAN_M11,X2_M11,X0_M11,X1_M11
2023-11-28 06:00:00,SystemResetWarning,0833.0,5.00,000.00,019.6,018.7,000.0,028.1,020.7,8.4,0000.0,0001.58,0004.96,0001.38
2023-11-28 06:01:00,SystemResetWarning,0833.2,4.99,000.00,019.6,018.7,000.0,028.1,020.7,8.3,0000.0,0001.59,0004.99,0001.37
2023-11-28 06:02:00,SystemResetWarning,0832.9,5.00,000.00,019.6,018.7,000.0,028.1,020.6,8.5,0000.0,0001.59,0004.75,0001.36
2023-11-28 06:03:00,SystemResetWarning,0832.9,5.00,000.00,019.6,018.7,000.0,028.1,020.6,8.6,0000.0,0001.53,0004.58,0001.32
2023-11-28 06:04:00,SystemResetWarning,0833.3,5.01,000.00,019.6,018.6,000.0,028.0,020.6,8.7,0000.0,0001.54,0004.62,0001.31
2023-11-28 06:05:00,SystemResetWarning,0833.4,5.01,000.00,019.5,018.6,000.0,028.0,020.6,8.8,0000.0,0001.55,0004.25,0001.32
2023-11-28 06:06:00,SystemResetWarning,0833.1,5.00,000.00,019.5,018.6,000.0,028.0,020.6,8.9,0000.0,0001.57,0004.00,0001.31
2023-11-28 06:07:00,SystemResetWarning,0833.0,5.00,000.00,019.5,018.6,000.0,028.0,020.7,9.0,0000.0,0001.59,0004.06,0001.31
2023-11-28 06:08:00,SystemResetWarning,0833.0,5.00,000.00,019.5,018.6,000.0,028.0,020.7,9.1,0000.0,0001.60,0004.17,0001.30
2023-11-28 06:09:00,SystemResetWarning,0832.8,4.99,000.00,019.5,018.6,000.0,028.0,020.6,9.3,0000.0,0001.60,0003.45,0001.28
2023-11-28 06:10:00,SystemResetWarning,0832.8,4.99,000.00,019.5,018.6,000.0,028.0,020.6,9.6,0000.0,0001.59,0002.38,0001.27
2023-11-28 06:11:00,SystemResetWarning,0832.8,5.00,000.00,019.5,018.5,000.0,028.0,020.6,9.8,0000.0,0001.58,0002.35,0001.26
2023-11-28 06:12:00,SystemResetWarning,0832.7,5.00,000.00,019.5,018.5,000.0,027.9,020.5,10.0,0000.0,0001.59,0002.33,0001.27
2023-11-28 06:13:00,SystemResetWarning,0832.8,5.00,000.00,019.5,018.5,000.0,027.9,020.5,9.8,0000.0,0001.60,0002.35,0001.27
2023-11-28 06:14:00,SystemResetWarning,0832.7,5.00,000.00,019.4,018.5,000.0,027.9,020.4,9.9,0000.0,0001.63,0002.40,0001.27
2023-11-28 06:15:00,SystemResetWarning,0832.7,5.00,000.00,019.4,018.5,000.0,027.9,020.5,9.9,0000.0,0001.66,0002.48,0001.28
2023-11-28 06:16:00,SystemResetWarning,0832.7,5.00,000.00,019.4,018.5,000.0,027.9,020.5,10.3,0000.0,0001.68,0002.76,0001.28
2023-11-28 06:17:00,SystemResetWarning,0832.7,5.00,000.00,019.4,018.5,000.0,027.9,020.5,10.1,0000.0,0001.68,0003.39,0001.29
2023-11-28 06:18:00,SystemResetWarning,0832.7,5.00,000.00,019.4,018.5,000.0,027.9,020.5,10.0,0000.0,0001.67,0003.32,0001.30
2023-11-28 06:19:00,SystemResetWarning,0832.7,5.00,000.00,019.4,018.4,000.0,027.8,020.4,9.7,0000.0,0001.67,0003.40,0001.32
2023-11-28 06:20:00,SystemResetWarning,0832.7,5.00,000.00,019.3,018.4,000.0,027.8,020.4,9.6,0000.0,0001.66,0003.41,0001.34
2023-11-28 06:21:00,SystemResetWarning,0832.7,5.00,000.00,019.3,018.4,000.0,027.8,020.4,9.5,0000.0,0001.69,0003.72,0001.34
2023-11-28 06:22:00,SystemResetWarning,0832.7,5.00,000.00,019.3,018.4,000.0,027.8,020.4,9.4,0000.0,0001.71,0003.85,0001.34
2023-11-28 06:23:00,SystemResetWarning,0832.7,5.00,000.00,019.3,018.4,000.0,027.8,020.3,9.3,0000.0,0001.73,0003.94,0001.35
2023-11-28 06:24:00,SystemResetWarning,0832.7,5.00,000.00,019.3,018.4,000.0,027.8,020.3,9.4,0000.0,0001.70,0003.87,0001.36
2023-11-28 06:25:00,SystemResetWarning,0832.7,5.00,000.00,019.3,018.4,000.0,027.8,020.4,9.4,0000.0,0001.69,0005.01,0001.37
2023-11-28 06:26:00,SystemResetWarning,0832.7,5.00,000.00,019.3,018.4,000.0,027.8,020.4,9.4,0000.0,0001.67,0005.18,0001.37
2023-11-28 06:27:00,SystemResetWarning,0832.7,4.98,000.00,019.3,018.4,000.0,027.8,020.4,9.2,0000.0,0001.70,0005.19,0001.37
2023-11-28 06:28:00,SystemResetWarning,0832.6,4.99,000.00,019.3,018.5,000.0,027.8,020.4,9.1,0000.0,0001.70,0004.40,0001.36
2023-11-28 06:29:00,SystemResetWarning,0832.6,5.00,000.00,019.3,018.5,000.0,027.7,020.4,9.1,0000.0,0001.72,0004.47,0001.36
2023-11-28 06:30:00,SystemResetWarning,0832.7,5.00,000.00,019.3,018.5,000.0,027.7,020.4,9.1,0000.0,0001.70,0004.38,0001.34
2023-11-28 06:31:00,SystemResetWarning,0832.6,5.01,000.00,019.3,018.5,000.0,027.7,020.4,9.1,0000.0,0001.66,0004.20,0001.32
2023-11-28 06:32:00,SystemResetWarning,0832.6,5.01,000.00,019.3,018.5,000.0,027.7,020.4,9.0,0000.0,0001.63,0003.98,0001.31
2023-11-28 06:33:00,SystemResetWarning,0832.7,5.00,000.00,019.3,018.5,000.0,027.7,020.4,9.2,0000.0,0001.58,0003.77,0001.29
2023-11-28 06:34:00,SystemResetWarning,0832.6,4.99,000.00,019.3,018.5,000.0,027.7,020.5,9.0,0000.0,0001.55,0003.70,0001.26
2023-11-28 06:35:00,SystemResetWarning,0832.6,4.99,000.00,019.3,018.5,000.0,027.7,020.5,9.0,0000.0,0001.53,0003.69,0001.23
2023-11-28 06:36:00,SystemResetWarning,0832.6,5.01,000.00,019.3,018.5,000.0,027.7,020.5,9.0,0000.0,0001.49,0003.18,0001.21
2023-11-28 06:37:00,SystemResetWarning,0832.6,5.01,000.00,019.3,018.5,000.0,027.7,020.4,9.1,0000.0,0001.47,0002.23,0001.19
2023-11-28 06:38:00,SystemResetWarning,0832.7,5.01,000.00,019.3,018.5,000.0,027.7,020.4,9.2,0000.0,0001.41,0002.09,0001.16
2023-11-28 06:39:00,SystemResetWarning,0832.7,4.99,000.00,019.3,018.5,000.0,027.7,020.5,9.1,0000.0,0001.36,0001.97,0001.15
2023-11-28 06:40:00,SystemResetWarning,0832.6,4.99,000.00,019.3,018.5,000.0,027.7,020.5,8.9,0000.0,0001.35,0001.94,0001.14
2023-11-28 06:41:00,SystemResetWarning,0832.6,5.00,000.00,019.3,018.5,000.0,027.7,020.5,9.0,0000.0,0001.34,0002.19,0001.13
2023-11-28 06:42:00,SystemResetWarning,0832.6,5.01,000.00,019.3,018.5,000.0,027.7,020.4,9.1,0000.0,0001.33,0003.18,0001.12
2023-11-28 06:43:00,SystemResetWarning,0832.6,5.00,000.00,019.3,018.5,000.0,027.7,020.4,9.2,0000.0,0001.31,0003.11,0001.11
2023-11-28 06:44:00,SystemResetWarning,0832.5,4.99,000.00,019.3,018.5,000.0,027.7,020.3,9.2,0000.0,0001.32,0003.11,0001.11
2023-11-28 06:45:00,SystemResetWarning,0832.5,4.99,000.00,019.3,018.4,000.0,027.7,020.3,9.1,0000.0,0001.33,0003.18,0001.11
2023-11-28 06:46:00,SystemResetWarning,0832.5,5.00,000.00,019.2,018.4,000.0,027.7,020.3,9.0,0000.0,0001.32,0003.13,0001.12
2023-11-28 06:47:00,SystemResetWarning,0832.5,5.00,000.00,019.2,018.4,000.0,027.7,020.4,9.2,0000.0,0001.31,0003.12,0001.11
2023-11-28 06:48:00,SystemResetWarning,0832.5,5.00,000.00,019.2,018.4,000.0,027.7,020.3,9.4,0000.0,0001.35,0003.20,0001.11
2023-11-28 06:49:00,SystemResetWarning,0832.5,5.00,000.00,019.2,018.4,000.0,027.6,020.3,9.2,0000.0,0001.39,0003.30,0001.11
2023-11-28 06:50:00,SystemResetWarning,0832.5,5.00,000.00,019.2,018.3,000.0,027.6,020.3,9.1,0000.0,0001.39,0003.31,0001.11
2023-11-28 06:51:00,SystemResetWarning,0832.5,5.00,000.00,019.2,018.3,000.0,027.6,020.3,9.1,0000.0,0001.36,0003.28,0001.09
2023-11-28 06:52:00,SystemResetWarning,0832.5,5.00,000.00,019.2,018.3,000.0,027.6,020.2,8.9,0000.0,0001.38,0003.05,0001.08
2023-11-28 06:53:00,SystemResetWarning,0832.6,5.00,000.00,019.2,018.3,000.0,027.6,020.3,8.8,0000.0,0001.40,0002.11,0001.09
2023-11-28 06:54:00,SystemResetWarning,0832.5,5.00,000.00,019.2,018.3,000.0,027.6,020.2,8.9,0000.0,0001.43,0002.17,0001.09
2023-11-28 06:55:00,SystemResetWarning,0832.6,5.00,000.00,019.1,018.3,000.0,027.6,020.2,9.3,0000.0,0001.42,0002.15,0001.10
2023-11-28 06:56:00,SystemResetWarning,0832.5,5.00,000.00,019.1,018.3,000.0,027.6,020.2,9.4,0000.0,0001.44,0002.12,0001.11
2023-11-28 06:57:00,SystemResetWarning,0832.5,5.00,000.00,019.1,018.3,000.0,027.6,020.2,9.3,0000.0,0001.47,0002.25,0001.11
2023-11-28 06:58:00,SystemResetWarning,0832.5,5.00,000.00,019.1,018.3,000.0,027.6,020.2,9.2,0000.0,0001.47,0002.24,0001.11
2023-11-28 06:59:00,SystemResetWarning,0832.4,5.00,000.00,019.1,018.3,000.0,027.6,020.2,9.1,0000.0,0001.41,0002.07,0001.11
